Simultaneous Nadir Overpasses (SNOs) Predictions

Prediction of SNOs between GOES-16 and AQUA Satellite Orbit:

Table of predicted SNOs for the next 14.0 days since TLE Epoch: 4/15/2022
Index Date Time (GOES-16) GOES-16 Lat,Lon AQUA Lat,Lon Distance(km) Time Diff (sec)
1 04/17/2022 06:26:16 -0.05, -75.22 -0.63, -72.61 298.07 80
2 04/17/2022 18:50:17 0.04, -75.23 -0.49, -77.78 289.84 80
3 04/19/2022 18:37:53 0.04, -75.24 0.12, -74.76 53.98 80
4 04/21/2022 18:25:30 0.04, -75.25 0.81, -71.76 397.99 80
5 04/22/2022 06:46:42 -0.03, -75.25 0.29, -76.90 186.27 80
6 04/24/2022 06:31:37 -0.03, -75.27 -0.30, -73.87 158.67 80
7 04/24/2022 18:52:58 0.02, -75.28 -0.79, -79.05 429.03 80
8 04/26/2022 18:40:34 0.02, -75.30 -0.12, -76.04 82.69 80
9 04/28/2022 18:30:49 0.02, -75.34 0.52, -73.01 264.65 80
10 04/29/2022 06:52:01 -0.02, -75.35 0.57, -78.15 318.45 80
